Regional Weather Roundup
Issued by NWS

Home | Current Version | Previous Version | Text Only | Print | Product List | Glossary On
Versions: 1 2 3 4 5 6 7 8 9 10 11 12 13 14 15 16 17 18 19 20 21 22 23 24 25 26 27 28 29 30 31 32 33 34 35 36 37 38 39 40 41 42 43 44 45 46 47 48 49 50
000
ASUS46 KPQR 021210
RWROR

OREGON REGIONAL WEATHER ROUNDUP
NATIONAL WEATHER SERVICE PORTLAND OR
500 AM PDT THU OCT 02 2014

NOTE: "FAIR" INDICATES FEW OR NO CLOUDS BELOW 12,000 FEET WITH
NO SIGNIFICANT WEATHER AND/OR OBSTRUCTIONS TO VISIBILITY.

ORZ001>013-021300-
NORTHWEST OREGON


CITY           SKY/WX    TMP DP  RH WIND       PRES   REMARKS
ASTORIA        CLEAR     48  46  93 SE3       30.21F
6HR MIN TEMP:  47; 6HR MAX TEMP:  53;

NEWPORT        CLEAR     48  46  93 E7        30.22F
PORTLAND       CLEAR     49  47  93 SE3       30.23F
6HR MIN TEMP:  49; 6HR MAX TEMP:  58;

VANCOUVER WA   CLEAR     48  45  89 CALM      30.22F
6HR MIN TEMP:  47; 6HR MAX TEMP:  54;

SCAPPOOSE      PTCLDY    43  42  97 CALM      30.21F FOG
6HR MIN TEMP:  46; 6HR MAX TEMP:  51;

HILLSBORO      CLEAR     45  44  97 CALM      30.22F FOG
6HR MIN TEMP:  44; 6HR MAX TEMP:  52;

AURORA         CLEAR     47  45  93 CALM      30.23F
6HR MIN TEMP:  46; 6HR MAX TEMP:  54;

MCMINNVILLE    CLEAR     45  44  97 CALM      30.23F FOG
6HR MIN TEMP:  44; 6HR MAX TEMP:  52;

SALEM          CLEAR     45  42  89 CALM      30.21F
6HR MIN TEMP:  45; 6HR MAX TEMP:  54;

CORVALLIS      CLEAR     43  41  93 CALM      30.23S
EUGENE         CLEAR     43  40  89 CALM      30.22S
6HR MIN TEMP:  41; 6HR MAX TEMP:  49;

$$

ORZ021-028-021300-
SOUTHWEST OREGON


CITY           SKY/WX    TMP DP  RH WIND       PRES   REMARKS
NORTH BEND     CLEAR     50  50 100 N3        30.18S
6HR MIN TEMP:  48; 6HR MAX TEMP:  55;

BROOKINGS      SUNNY     60  44  55 CALM      30.05R
ROSEBURG       CLEAR     47  43  86 CALM      30.20F
6HR MIN TEMP:  47; 6HR MAX TEMP:  54;

SEXTON SUMMIT  CLEAR     55  37  50 NE9       30.19S
6HR MIN TEMP:  51; 6HR MAX TEMP:  58;

MEDFORD        CLEAR     47  43  86 N3        30.18S
6HR MIN TEMP:  47; 6HR MAX TEMP:  57;

$$

ORZ009-041-021300-
COLUMBIA GORGE


CITY           SKY/WX    TMP DP  RH WIND       PRES   REMARKS
TROUTDALE      CLEAR     47  44  90 CALM      30.22S
6HR MIN TEMP:  45; 6HR MAX TEMP:  53;

THE DALLES     PTCLDY    59  44  57 W10       30.15S
6HR MIN TEMP:  59; 6HR MAX TEMP:  62;

$$

ORZ029>031-042>050-061>064-021300-
EASTERN OREGON


CITY           SKY/WX    TMP DP  RH WIND       PRES   REMARKS
REDMOND        CLEAR     35  25  66 SE5       30.19F WCI  31
6HR MIN TEMP:  33; 6HR MAX TEMP:  42;

BEND           SUNNY     43  36  75 S9        30.21F
KLAMATH FALLS  PTCLDY    34  31  88 CALM      30.23S
6HR MIN TEMP:  32; 6HR MAX TEMP:  42;

LAKEVIEW       PTCLDY    25  16  68 NW8       30.26S WCI  16
HERMISTON      MOCLDY    48  39  71 S5        30.16R
6HR MIN TEMP:  48; 6HR MAX TEMP:  57;

PENDLETON      PTCLDY    46  36  68 E6        30.16R
6HR MIN TEMP:  42; 6HR MAX TEMP:  51;

JOHN DAY       MOSUNNY   43  30  60 SE8       30.20S
MEACHAM        PTCLDY    30  28  92 CALM      30.17R
6HR MIN TEMP:  29; 6HR MAX TEMP:  33;

LA GRANDE      MOCLDY    37  27  65 CALM      30.16R
6HR MIN TEMP:  36; 6HR MAX TEMP:  43;

BAKER CITY     PTCLDY    29  28  96 N3        30.16F
6HR MIN TEMP:  28; 6HR MAX TEMP:  35;

BURNS          PTCLDY    25  21  85 CALM      30.23F
6HR MIN TEMP:  24; 6HR MAX TEMP:  33;

ROME             N/A     38  32  79 S8        30.23R WCI  32
6HR MIN TEMP:  37; 6HR MAX TEMP:  46;

ONTARIO        MOCLDY    40  36  86 CALM      30.18F
6HR MIN TEMP:  39; 6HR MAX TEMP:  48;

$$


USA.gov is the U.S. government's official web portal to all federal, state and local government web resources and services.